Regional Weather Roundup
Issued by NWS Newport/Morehead, NC

Current Version | Previous Version | Text Only | Print | Product List | Glossary Off
Versions: 1 2 3 4 5 6 7 8 9 10 11 12 13 14 15 16 17 18 19 20 21 22 23 24 25 26 27 28 29 30 31 32 33 34 35 36 37 38 39 40 41 42 43 44 45 46 47 48 49 50
627 ASUS42 KMHX 301213 RWRMHX WEATHER ROUNDUP FOR EASTERN NORTH CAROLINA NATIONAL WEATHER SERVICE NEWPORT/MOREHEAD CITY NC 800 AM EDT SAT APR 30 2016 NOTE: "FAIR" INDICATES FEW OR NO CLOUDS BELOW 12,000 FEET WITH NO SIGNIFICANT WEATHER AND/OR OBSTRUCTIONS TO VISIBILITY NCZ015>017-031-032-045>047-102-103-301300- NORTH COAST CITY SKY/WX TMP DP RH WIND PRES REMARKS EDENTON CLOUDY 57 57 99 NE3 30.15R ELIZABETH CITY CLOUDY 55 53 93 N14 30.14R KITTY HAWK CLOUDY 55 54 95 NE8 30.12R MANTEO NOT AVBL $$ NCZ045>047-081-094-103-104-301300- CENTRAL COAST CITY SKY/WX TMP DP RH WIND PRES REMARKS FRISCO CLOUDY 58 54 86 NE10G18 30.12R SWANQUARTER NOT AVBL $$ NCZ095-097-098-100-101-301300- SOUTHERN COAST CITY SKY/WX TMP DP RH WIND PRES REMARKS BEAUFORT CLOUDY 60 56 86 NE7 30.13R CEDAR ISLAND NOT AVBL JACKSONVILLE CLOUDY 62 57 83 E13 30.11R PINEY ISLAND NOT AVBL WILMINGTON PTSUNNY 63 60 90 NE7 30.09R $$ NCZ011>013-027>030-043-044-078>080-089-090>093-098-301300- COASTAL PLAIN CITY SKY/WX TMP DP RH WIND PRES REMARKS AHOSKIE CLOUDY 55 53 93 N5 30.14S CLINTON CLOUDY 61 60 96 NE3 30.11R ELIZABETHTOWN CLOUDY 62 60 94 CALM 30.09S FOG GOLDSBORO CLOUDY 57 57 100 E9 30.12R GREENVILLE CLOUDY 57 55 94 E6 30.14R HAVELOCK CLOUDY 59 55 87 NE7 30.14R KENANSVILLE CLOUDY 60 58 94 CALM 30.13R KINSTON CLOUDY 59 55 88 E5 30.13R NEW BERN CLOUDY 58 54 86 E5 30.14S RICHLANDS CLOUDY 60 58 92 NE8 30.12R ROCKY MOUNT CLOUDY 58 55 90 NE6 30.13R WASHINGTON CLOUDY 56 54 91 NE3 30.14R WHITEVILLE CLOUDY 64 61 92 NE6 30.08R $$ AMZ130-135-150-152-154-156-158-170-250-252-270-ANZ085-086-088-633-658-670-301300- MARINE OBSERVATIONS STATION/POSITION TIME TEMP WIND PRES WAVE SWELL AIR SEA DIR/SP/G HT/PER HT/PER (UTC) (F) (DEG/KT/KT) (MB) (FT/S) (FT/S) CHESAPEAKE LIGHT 1100 52 30/ 15/ 16 1020.8 64 E VA BEACH 1150 51 53 20/ 16/ 17 1019.7 7/ 9 5/ 9 DUCK 1100 54 66 20/ 15/ 17 1019.1 2 E DUCK 1111 58 N/A 4/ 5 2/11 OREGON INLET 1100 55 63 10/ 11/ 16 1019.2 13E OREGON INLT 1200 54 N/A 5/11 5/11 HATTERAS CG 1100 59 69 360/ 17/ 21 1019.0 DIAMOND BUOY 1150 59 74 20/ 16/ 19 1019.5 5/ 9 3/ 9 CAPE LOOKOUT 1200 61 40/ 12/ 14 1019.9 BEAUFORT LAB 1100 60 67 20/ 8/ 11 1018.7 30 SE NEW RVR IN 1125 67 N/A 3/ 4 27 SE WRIGHTSVLE 1108 66 69 60/ 17/ 23 1017.2 5 SE WRIGHTSVLE 1108 66 68 70/ 16/ 19 1018.9 225 S CAPE HAT 1150 71 71 70/ 10/ 10 1017.4 3/ 9 3/ 9 41 SE CHARLESTON 1150 74 72 90/ 4/ 6 1016.6 2/10 2/10 $$

USA.gov is the U.S. government's official web portal to all federal, state and local government web resources and services.